Weather History for Oakland, MD

Change the Weather History Date:

Sunday, December 30, 2012

  Actual Average (KMGW) Record (KMGW)
Temperature  
Mean Temperature 21 °F 32 °F  
Max Temperature 23 °F 39 °F 67 °F (1971)
Min Temperature 19 °F 24 °F 3 °F (1983)
Degree Days  
Heating Degree Days 44 33  
Month to date heating degree days 904  
Since 1 July heating degree days 1952  
Cooling Degree Days 0 0  
Month to date cooling degree days 0  
Year to date cooling degree days 814  
Moisture  
Dew Point 21 °F    
Average Humidity 100    
Maximum Humidity 100    
Minimum Humidity 100    
Precipitation  
Precipitation 0.00 in 0.09 in 1.38 in (1990)
Month to date precipitation 2.83  
Year to date precipitation 41.75  
Sea Level Pressure  
Sea Level Pressure 30.08 in    
Wind  
Wind Speed 7 mph (West)    
Max Wind Speed 9 mph    
Max Gust Speed 17 mph    
Visibility 3 miles    
Events Fog    
T = Trace of Precipitation, MM = Missing Value Source: NWS Daily Summary

Daily Weather History Graph

Daily Weather History Graph

Search for Another Location

Airport:

Trip Planner

Search our weather history database for the weather conditions in past years. The results will help you decide how hot, cold, wet, or windy it might be!

Date:

Astronomy

Dec. 30, 2012 Rise Set
Actual Time 7:37 AM EST 5:02 PM EST
Civil Twilight 7:07 AM EST 5:32 PM EST
Nautical Twilight 6:33 AM EST 6:06 PM EST
Astronomical Twilight 6:01 AM EST 6:39 PM EST
Moon 7:31 PM EST (12/30) 8:46 AM EST (12/30)
Length of Visible Light 10h 25m
Length of Day
9h 25m
Waning Gibbous, 95% of the Moon is Illuminated
Dec 30
Waning Gibbous
Jan 4
Last Quarter
Jan 11
New
Jan 18
First Quarter
Jan 26
Full

Hourly Weather History & Observations

Time (EST) Temp. Windchill Dew Point Humidity Pressure Visibility Wind Dir Wind Speed Gust Speed Precip Events Conditions
12:00 AM 23.0 °F 15.8 °F 23.0 °F 100% 29.78 in 1.2 mi WNW 5.8 mph - N/A   Overcast
12:25 AM 23.0 °F 13.9 °F 23.0 °F 100% 29.78 in 1.0 mi WNW 8.1 mph - N/A   Overcast
12:45 AM 23.0 °F 14.7 °F 23.0 °F 100% 29.78 in 1.0 mi West 6.9 mph - N/A   Overcast
1:05 AM 23.0 °F 14.7 °F 23.0 °F 100% 29.79 in 0.8 mi West 6.9 mph - N/A   Mostly Cloudy
1:25 AM 23.0 °F 14.7 °F 23.0 °F 100% 29.81 in 0.8 mi West 6.9 mph - N/A   Mist
2:10 AM 23.0 °F 14.7 °F 23.0 °F 100% 29.83 in 1.0 mi West 6.9 mph - N/A   Mist
2:30 AM 23.0 °F 13.1 °F 23.0 °F 100% 29.85 in 0.8 mi West 9.2 mph - N/A   Mist
2:50 AM 23.0 °F 13.1 °F 23.0 °F 100% 29.86 in 0.8 mi West 9.2 mph - N/A   Mist
3:15 AM 23.0 °F 15.8 °F 23.0 °F 100% 29.87 in 0.8 mi West 5.8 mph - N/A   Mist
4:15 AM 21.2 °F 12.6 °F 21.2 °F 100% 29.88 in 0.5 mi WNW 6.9 mph 17.3 mph N/A Fog Light Freezing Fog
4:40 AM 21.2 °F 12.6 °F 21.2 °F 100% 29.90 in 0.8 mi WNW 6.9 mph - N/A   Overcast
5:00 AM 21.2 °F 11.7 °F 21.2 °F 100% 29.92 in 0.8 mi WNW 8.1 mph - N/A   Overcast
5:20 AM 21.2 °F 11.7 °F 21.2 °F 100% 29.94 in 2.5 mi WNW 8.1 mph - N/A   Overcast
5:40 AM 21.2 °F 11.7 °F 21.2 °F 100% 29.96 in 2.0 mi WNW 8.1 mph - N/A   Overcast
6:05 AM 19.4 °F 11.5 °F 19.4 °F 100% 29.98 in 4.0 mi WNW 5.8 mph - N/A   Overcast
6:25 AM 19.4 °F 9.5 °F 19.4 °F 100% 30.00 in 5.0 mi WNW 8.1 mph - N/A   Overcast
6:45 AM 19.4 °F 10.4 °F 19.4 °F 100% 30.01 in 10.0 mi NW 6.9 mph - N/A   Overcast
7:05 AM 19.4 °F 12.8 °F 19.4 °F 100% 30.03 in 5.0 mi West 4.6 mph - N/A   Overcast
7:30 AM 19.4 °F 10.4 °F 19.4 °F 100% 30.05 in 2.5 mi West 6.9 mph - N/A   Overcast
8:10 AM 19.4 °F 10.4 °F 19.4 °F 100% 30.07 in 0.5 mi West 6.9 mph - N/A Fog Light Freezing Fog
8:30 AM 19.4 °F 8.6 °F 19.4 °F 100% 30.08 in 0.5 mi West 9.2 mph - N/A Fog Light Freezing Fog
8:55 AM 19.4 °F 11.5 °F 19.4 °F 100% 30.11 in 0.5 mi West 5.8 mph - N/A Fog Light Freezing Fog
9:15 AM 19.4 °F 11.5 °F 19.4 °F 100% 30.12 in 0.5 mi West 5.8 mph - N/A Fog Light Freezing Fog
9:35 AM 21.2 °F 13.6 °F 21.2 °F 100% 30.13 in 0.5 mi West 5.8 mph - N/A Fog Light Freezing Fog
9:55 AM 21.2 °F 12.6 °F 21.2 °F 100% 30.14 in 0.5 mi West 6.9 mph - N/A Fog Light Freezing Fog
10:20 AM 21.2 °F 11.7 °F 21.2 °F 100% 30.15 in 0.8 mi West 8.1 mph - N/A   Overcast
11:00 AM 21.2 °F 11.7 °F 21.2 °F 100% 30.16 in 1.8 mi West 8.1 mph - N/A   Overcast
11:20 AM 21.2 °F 12.6 °F 21.2 °F 100% 30.16 in 1.5 mi West 6.9 mph - N/A   Overcast
12:05 PM 21.2 °F 11.7 °F 21.2 °F 100% 30.14 in 1.0 mi West 8.1 mph - N/A   Overcast
12:45 PM 21.2 °F 11.7 °F 21.2 °F 100% 30.13 in 2.0 mi West 8.1 mph - N/A   Overcast
1:10 PM 21.2 °F 10.9 °F 21.2 °F 100% 30.12 in 1.5 mi West 9.2 mph - N/A   Overcast
1:30 PM 21.2 °F 11.7 °F 21.2 °F 100% 30.12 in 1.2 mi West 8.1 mph 16.1 mph N/A   Overcast
1:50 PM 21.2 °F 10.9 °F 21.2 °F 100% 30.12 in 1.2 mi West 9.2 mph - N/A   Overcast
2:10 PM 21.2 °F 10.9 °F 21.2 °F 100% 30.13 in 1.2 mi West 9.2 mph 17.3 mph N/A   Overcast
2:35 PM 21.2 °F 10.9 °F 21.2 °F 100% 30.14 in 1.0 mi West 9.2 mph - N/A   Overcast
2:55 PM 21.2 °F 12.6 °F 21.2 °F 100% 30.15 in 2.0 mi West 6.9 mph - N/A   Overcast
3:15 PM 21.2 °F 10.9 °F 21.2 °F 100% 30.15 in 1.2 mi West 9.2 mph - N/A   Overcast
3:35 PM 19.4 °F 8.6 °F 19.4 °F 100% 30.16 in 2.0 mi West 9.2 mph - N/A   Overcast
4:00 PM 19.4 °F 10.4 °F 19.4 °F 100% 30.17 in 1.8 mi West 6.9 mph - N/A   Overcast
4:20 PM 19.4 °F 10.4 °F 19.4 °F 100% 30.19 in 2.5 mi West 6.9 mph - N/A   Overcast
4:40 PM 19.4 °F 12.8 °F 19.4 °F 100% 30.20 in 1.2 mi West 4.6 mph - N/A   Overcast
5:00 PM 19.4 °F 12.8 °F 19.4 °F 100% 30.20 in 1.2 mi West 4.6 mph - N/A   Overcast
5:25 PM 19.4 °F 10.4 °F 19.4 °F 100% 30.19 in 5.0 mi West 6.9 mph - N/A   Overcast
6:05 PM 19.4 °F 10.4 °F 19.4 °F 100% 30.19 in 10.0 mi West 6.9 mph - N/A   Overcast
6:25 PM 19.4 °F 10.4 °F 19.4 °F 100% 30.19 in 10.0 mi West 6.9 mph - N/A   Overcast
6:50 PM 19.4 °F 12.8 °F 19.4 °F 100% 30.19 in 10.0 mi West 4.6 mph - N/A   Overcast
7:10 PM 19.4 °F 11.5 °F 19.4 °F 100% 30.19 in 7.0 mi West 5.8 mph - N/A   Overcast
7:50 PM 19.4 °F 9.5 °F 19.4 °F 100% 30.19 in 10.0 mi West 8.1 mph - N/A   Overcast
8:15 PM 19.4 °F 8.6 °F 19.4 °F 100% 30.20 in 10.0 mi West 9.2 mph - N/A   Overcast
8:35 PM 19.4 °F 10.4 °F 19.4 °F 100% 30.20 in 7.0 mi West 6.9 mph - N/A   Overcast
8:55 PM 19.4 °F 11.5 °F 19.4 °F 100% 30.21 in 7.0 mi West 5.8 mph - N/A   Overcast
9:15 PM 19.4 °F 10.4 °F 19.4 °F 100% 30.20 in 7.0 mi West 6.9 mph - N/A   Overcast
9:40 PM 19.4 °F 10.4 °F 19.4 °F 100% 30.20 in 7.0 mi WSW 6.9 mph - N/A   Overcast
10:00 PM 19.4 °F 9.5 °F 19.4 °F 100% 30.21 in 7.0 mi WSW 8.1 mph - N/A   Overcast
10:20 PM 19.4 °F 11.5 °F 19.4 °F 100% 30.21 in 7.0 mi WSW 5.8 mph - N/A   Overcast
11:05 PM 19.4 °F 9.5 °F 19.4 °F 100% 30.20 in 7.0 mi WSW 8.1 mph - N/A   Overcast
11:25 PM 19.4 °F 11.5 °F 19.4 °F 100% 30.19 in 7.0 mi West 5.8 mph - N/A   Overcast
11:45 PM 19.4 °F 10.4 °F 19.4 °F 100% 30.18 in 10.0 mi West 6.9 mph - N/A   Overcast